Citadel — PBOK — position and weather

sailwx.info

Track history (hours):
 
Tides and Currents Weather Stations Pressure Air Temp Water Temp Dewpoint Dewpoint Depression Visibility Wind Speed Wind Dir Waves Ship Positions

Citadel

Last reported at 2014-Jul-28 13:33 UTC. Time now 2014-Jul-28 14:30 UTC.
Position N 49°28' W 000°06'.

Length 111 m; draft 6.4 m.

Type: Cargo ship. MMSI: 245977000.

Date/timePositionNaut miles runAvg speedWind from/ knotsBaromVisibWave heightAir tempDewpointWater temp
2014-Jul-28 13:33N 49°28' W 000°06'0 0.1
2014-Jul-28 12:33N 49°28' W 000°06'0 0.1
2014-Jul-28 11:32N 49°29' W 000°06'0 0.0
2014-Jul-28 10:32N 49°29' W 000°06'0 0.0
2014-Jul-28 09:31N 49°29' W 000°06'0 0.0
2014-Jul-28 08:25N 49°29' W 000°06'5 6.3
2014-Jul-28 07:33N 49°34' W 000°06'59 9.2
2014-Jul-28 01:09N 50°31' E 000°17'610.2
2014-Jul-28 00:31N 50°32' E 000°27'9 9.9
2014-Jul-27 23:33N 50°36' E 000°41'1010.0
2014-Jul-27 22:34N 50°43' E 000°53'10 9.8
2014-Jul-27 21:33N 50°49' E 001°05'1010.0
2014-Jul-27 20:32N 50°55' E 001°18'1111.7
2014-Jul-27 19:33N 51°03' E 001°31'9 9.0
2014-Jul-27 18:33N 51°03' E 001°45'1211.7
2014-Jul-27 17:33N 51°03' E 002°04'1110.8
2014-Jul-27 16:33N 51°03' E 002°21'1 0.5
2014-Jul-27 15:31N 51°03' E 002°21'0 0.0
2014-Jul-27 14:33N 51°03' E 002°21'0 0.0
2014-Jul-27 13:33N 51°03' E 002°21'0 0.0
2014-Jul-27 12:32N 51°03' E 002°21'0 0.0
2014-Jul-27 11:26N 51°03' E 002°21'0 0.0
2014-Jul-27 10:31N 51°03' E 002°21'0 0.0
2014-Jul-27 09:25N 51°03' E 002°21'0 0.0
2014-Jul-27 08:27N 51°03' E 002°21'0 0.0
2014-Jul-27 07:33N 51°03' E 002°21'0 0.0
2014-Jul-27 06:29N 51°03' E 002°21'0 0.0
2014-Jul-27 05:32N 51°03' E 002°21'0 0.0
2014-Jul-27 04:29N 51°03' E 002°21'0 0.0
2014-Jul-27 03:28N 51°03' E 002°21'0 0.0
2014-Jul-27 02:31N 51°03' E 002°21'0 0.0
2014-Jul-27 01:33N 51°03' E 002°21'0 0.0
2014-Jul-27 00:33N 51°03' E 002°21'0 0.0
2014-Jul-26 23:33N 51°03' E 002°21'0 0.0
2014-Jul-26 22:23N 51°03' E 002°21'0 0.0
2014-Jul-26 21:29N 51°03' E 002°21'0 0.0
2014-Jul-26 20:25N 51°03' E 002°21'0 0.0
2014-Jul-26 19:16N 51°03' E 002°21'0 0.0
2014-Jul-26 18:33N 51°03' E 002°21'0 0.0
2014-Jul-26 17:33N 51°03' E 002°21'0 0.0
2014-Jul-26 16:27N 51°03' E 002°21'0 0.0
2014-Jul-26 15:32N 51°03' E 002°21'0 0.0
2014-Jul-26 14:29N 51°03' E 002°21'0 0.0
2014-Jul-26 13:31N 51°03' E 002°21'0 0.0
2014-Jul-26 12:31N 51°03' E 002°21'0 0.0
2014-Jul-26 11:34N 51°03' E 002°21'0 0.0
2014-Jul-26 10:33N 51°03' E 002°21'0 0.0
2014-Jul-26 09:33N 51°03' E 002°21'0 0.0
2014-Jul-26 08:26N 51°03' E 002°21'0 0.0
2014-Jul-26 07:17N 51°03' E 002°21'0 0.0
2014-Jul-26 06:31N 51°03' E 002°21'0 0.0
2014-Jul-26 05:28N 51°03' E 002°21'0 0.0
2014-Jul-26 04:30N 51°03' E 002°21'0 0.0
2014-Jul-26 03:33N 51°03' E 002°21'0 0.0
2014-Jul-26 02:32N 51°03' E 002°21'0 0.0
2014-Jul-26 01:17N 51°03' E 002°21'0 0.0
2014-Jul-26 00:32N 51°03' E 002°21'0 0.0
2014-Jul-25 22:31N 51°03' E 002°21'0 0.0
2014-Jul-25 21:27N 51°03' E 002°21'0 0.0
2014-Jul-25 20:30N 51°03' E 002°21'0 0.0
2014-Jul-25 19:29N 51°03' E 002°21'0 0.0
2014-Jul-25 18:32N 51°03' E 002°21'0 0.0
2014-Jul-25 17:32N 51°03' E 002°21'0 0.0
2014-Jul-25 16:31N 51°03' E 002°21'0 0.0
2014-Jul-25 15:31N 51°03' E 002°21'0 0.0
2014-Jul-25 14:21N 51°03' E 002°21'0 0.0
2014-Jul-25 13:24N 51°03' E 002°21'0 0.0
2014-Jul-25 12:29N 51°03' E 002°21'0 0.0
2014-Jul-25 11:32N 51°03' E 002°21'0 0.0
2014-Jul-25 10:26N 51°03' E 002°21'0 0.0
2014-Jul-25 09:25N 51°03' E 002°21'0 0.0
2014-Jul-25 08:28N 51°03' E 002°21'0 0.0
2014-Jul-25 07:33N 51°03' E 002°21'0 0.0
2014-Jul-25 06:30N 51°03' E 002°21'0 0.0
2014-Jul-25 05:32N 51°03' E 002°21'0 0.0
2014-Jul-25 04:32N 51°03' E 002°21'0 0.0
2014-Jul-25 03:32N 51°03' E 002°21'0 0.0
2014-Jul-25 02:31N 51°03' E 002°21'0 0.0
2014-Jul-25 01:28N 51°03' E 002°21'0 0.0
2014-Jul-25 00:33N 51°03' E 002°21'0 0.0
2014-Jul-24 23:33N 51°03' E 002°21'0 0.0
2014-Jul-24 22:32N 51°03' E 002°21'0 0.0
2014-Jul-24 21:32N 51°03' E 002°21'0 0.0
2014-Jul-24 20:31N 51°03' E 002°21'0 0.0
2014-Jul-24 19:31N 51°03' E 002°21'0 0.0
2014-Jul-24 18:31N 51°03' E 002°21'0 0.0
2014-Jul-24 17:33N 51°03' E 002°21'0 0.0
2014-Jul-24 16:30N 51°03' E 002°21'0 0.0
2014-Jul-24 15:32N 51°03' E 002°21'0 0.0
2014-Jul-24 14:32N 51°03' E 002°21'0 0.0
2014-Jul-24 13:31N 51°03' E 002°21'0 0.0
2014-Jul-24 12:31N 51°03' E 002°21'0 0.0
2014-Jul-24 11:30N 51°03' E 002°21'0 0.0
2014-Jul-24 10:18N 51°03' E 002°21'0 0.0
2014-Jul-24 09:21N 51°03' E 002°21'0 0.0
2014-Jul-24 08:32N 51°03' E 002°21'0 0.0
2014-Jul-24 07:32N 51°03' E 002°21'0 0.0
2014-Jul-24 06:31N 51°03' E 002°21'0 0.0
2014-Jul-24 05:28N 51°03' E 002°21'0 0.0
2014-Jul-24 04:34N 51°03' E 002°21'0 0.0
2014-Jul-24 03:33N 51°03' E 002°21'0 0.0
2014-Jul-24 02:33N 51°03' E 002°21'0 0.0
2014-Jul-24 01:32N 51°03' E 002°21'0 0.0
2014-Jul-24 00:32N 51°03' E 002°21'0 0.0
2014-Jul-23 23:31N 51°03' E 002°21'0 0.0
2014-Jul-23 22:31N 51°03' E 002°21'0 0.0
2014-Jul-23 21:34N 51°03' E 002°21'0 0.0
2014-Jul-23 20:33N 51°03' E 002°21'0 0.0
2014-Jul-23 19:27N 51°03' E 002°21'0 0.0
2014-Jul-23 18:32N 51°03' E 002°21'0 0.0
2014-Jul-23 17:32N 51°03' E 002°21'0 0.0
2014-Jul-23 16:25N 51°03' E 002°21'0 0.0
2014-Jul-23 15:31N 51°03' E 002°21'0 0.0
2014-Jul-23 14:33N 51°03' E 002°21'0 0.0
2014-Jul-23 13:33N 51°03' E 002°21'0 0.0
2014-Jul-23 11:14N 51°03' E 002°21'0 0.0
2014-Jul-23 10:20N 51°03' E 002°21'0 0.0
2014-Jul-23 09:07N 51°03' E 002°21'0 0.0
2014-Jul-23 08:22N 51°03' E 002°21'0 0.0
2014-Jul-23 07:34N 51°03' E 002°21'0 0.0
2014-Jul-23 06:12N 51°03' E 002°21'0 0.0
2014-Jul-23 05:33N 51°03' E 002°21'0 0.0
2014-Jul-23 04:08N 51°03' E 002°21'0 0.0
2014-Jul-23 03:14N 51°03' E 002°21'0 0.0
2014-Jul-23 02:31N 51°03' E 002°21'0 0.0
2014-Jul-23 01:25N 51°03' E 002°21'0 0.0
2014-Jul-23 00:33N 51°03' E 002°21'0 0.0
2014-Jul-22 23:33N 51°03' E 002°21'0 0.0
2014-Jul-22 22:30N 51°03' E 002°21'0 0.0
2014-Jul-22 21:29N 51°03' E 002°21'0 0.0
2014-Jul-22 20:32N 51°03' E 002°21'0 0.0
2014-Jul-22 19:31N 51°03' E 002°21'0 0.0
2014-Jul-22 18:31N 51°03' E 002°21'0 0.0
2014-Jul-22 17:33N 51°03' E 002°21'0 0.0
2014-Jul-22 16:33N 51°03' E 002°21'0 0.0
2014-Jul-22 15:33N 51°03' E 002°21'0 0.0
2014-Jul-22 14:32N 51°03' E 002°21'0 0.0
2014-Jul-22 13:29N 51°03' E 002°21'0 0.0
2014-Jul-22 12:31N 51°03' E 002°21'0 0.5
2014-Jul-22 11:33N 51°03' E 002°21'2210.9
2014-Jul-22 09:32N 51°01' E 001°46'12 9.3
2014-Jul-22 08:13N 50°54' E 001°30'28 9.9
2014-Jul-22 05:23N 50°31' E 001°05'1213.2
2014-Jul-22 04:30N 50°26' E 000°49'1313.7
2014-Jul-22 03:33N 50°22' E 000°29'4410.9
2014-Jul-21 23:31N 49°43' W 000°04'1212.3
2014-Jul-21 22:33N 49°32' W 000°07'1211.6
2014-Jul-21 21:33N 49°26' E 000°09'1514.1
2014-Jul-21 20:30N 49°29' E 000°31'511.5
2014-Jul-21 20:05N 49°26' E 000°36'2 0.1
2014-Jul-20 01:30N 49°27' E 000°33'1010.9
2014-Jul-20 00:34N 49°26' E 000°18'1212.2
2014-Jul-19 23:33N 49°28' W 000°01'8 7.9
2014-Jul-19 22:33N 49°33' W 000°10'5711.3
2014-Jul-19 17:33N 50°28' E 000°05'1212.2
2014-Jul-19 16:33N 50°32' E 000°24'1111.2
2014-Jul-19 15:34N 50°36' E 000°40'1111.1
2014-Jul-19 14:33N 50°42' E 000°54'1812.1
2014-Jul-19 13:05N 50°53' E 001°17'714.1
2014-Jul-19 12:34N 50°59' E 001°24'1312.6
2014-Jul-19 11:33N 51°05' E 001°41'1313.0
2014-Jul-19 10:33N 51°03' E 002°01'1212.4
2014-Jul-19 09:32N 51°03' E 002°21'1 0.6
2014-Jul-19 08:31N 51°03' E 002°21'0 0.0
2014-Jul-19 07:33N 51°03' E 002°21'0 0.0
2014-Jul-19 06:09N 51°03' E 002°21'0 0.0
2014-Jul-19 05:29N 51°03' E 002°21'0 0.0
2014-Jul-19 04:26N 51°03' E 002°21'0 0.0
2014-Jul-19 03:25N 51°03' E 002°21'0 0.0
2014-Jul-19 02:31N 51°03' E 002°21'0 0.0
2014-Jul-19 01:33N 51°03' E 002°21'0 0.0
2014-Jul-19 00:30N 51°03' E 002°21'0 0.0
2014-Jul-18 23:24N 51°03' E 002°21'0 0.0
2014-Jul-18 22:29N 51°03' E 002°21'0 0.0
2014-Jul-18 21:26N 51°03' E 002°21'0 0.0
2014-Jul-18 20:31N 51°03' E 002°21'0 0.0
2014-Jul-18 19:31N 51°03' E 002°21'0 0.0
2014-Jul-18 18:33N 51°03' E 002°21'0 0.0
2014-Jul-18 17:33N 51°03' E 002°21'0 0.0
2014-Jul-18 16:11N 51°03' E 002°21'0 0.0
2014-Jul-18 15:32N 51°03' E 002°21'0 0.0
2014-Jul-18 14:32N 51°03' E 002°21'  
Track history (hours):
 
Tides and Currents Weather Stations Pressure Air Temp Water Temp Dewpoint Dewpoint Depression Visibility Wind Speed Wind Dir Waves Ship Positions

Citadel

Last reported at 2014-Jul-28 13:33 UTC. Time now 2014-Jul-28 14:30 UTC.
Position N 49°28' W 000°06'.

Length 111 m; draft 6.4 m.

Type: Cargo ship. MMSI: 245977000.

Date/timePositionNaut miles runAvg speedWind from/ knotsBaromVisibWave heightAir tempDewpointWater temp
2014-Jul-28 13:33N 49°28' W 000°06'0 0.1
2014-Jul-28 12:33N 49°28' W 000°06'0 0.1
2014-Jul-28 11:32N 49°29' W 000°06'0 0.0
2014-Jul-28 10:32N 49°29' W 000°06'0 0.0
2014-Jul-28 09:31N 49°29' W 000°06'0 0.0
2014-Jul-28 08:25N 49°29' W 000°06'5 6.3
2014-Jul-28 07:33N 49°34' W 000°06'59 9.2
2014-Jul-28 01:09N 50°31' E 000°17'610.2
2014-Jul-28 00:31N 50°32' E 000°27'9 9.9
2014-Jul-27 23:33N 50°36' E 000°41'1010.0
2014-Jul-27 22:34N 50°43' E 000°53'10 9.8
2014-Jul-27 21:33N 50°49' E 001°05'1010.0
2014-Jul-27 20:32N 50°55' E 001°18'1111.7
2014-Jul-27 19:33N 51°03' E 001°31'9 9.0
2014-Jul-27 18:33N 51°03' E 001°45'1211.7
2014-Jul-27 17:33N 51°03' E 002°04'1110.8
2014-Jul-27 16:33N 51°03' E 002°21'1 0.5
2014-Jul-27 15:31N 51°03' E 002°21'0 0.0
2014-Jul-27 14:33N 51°03' E 002°21'0 0.0
2014-Jul-27 13:33N 51°03' E 002°21'0 0.0
2014-Jul-27 12:32N 51°03' E 002°21'0 0.0
2014-Jul-27 11:26N 51°03' E 002°21'0 0.0
2014-Jul-27 10:31N 51°03' E 002°21'0 0.0
2014-Jul-27 09:25N 51°03' E 002°21'0 0.0
2014-Jul-27 08:27N 51°03' E 002°21'0 0.0
2014-Jul-27 07:33N 51°03' E 002°21'0 0.0
2014-Jul-27 06:29N 51°03' E 002°21'0 0.0
2014-Jul-27 05:32N 51°03' E 002°21'0 0.0
2014-Jul-27 04:29N 51°03' E 002°21'0 0.0
2014-Jul-27 03:28N 51°03' E 002°21'0 0.0
2014-Jul-27 02:31N 51°03' E 002°21'0 0.0
2014-Jul-27 01:33N 51°03' E 002°21'0 0.0
2014-Jul-27 00:33N 51°03' E 002°21'0 0.0
2014-Jul-26 23:33N 51°03' E 002°21'0 0.0
2014-Jul-26 22:23N 51°03' E 002°21'0 0.0
2014-Jul-26 21:29N 51°03' E 002°21'0 0.0
2014-Jul-26 20:25N 51°03' E 002°21'0 0.0
2014-Jul-26 19:16N 51°03' E 002°21'0 0.0
2014-Jul-26 18:33N 51°03' E 002°21'0 0.0
2014-Jul-26 17:33N 51°03' E 002°21'0 0.0
2014-Jul-26 16:27N 51°03' E 002°21'0 0.0
2014-Jul-26 15:32N 51°03' E 002°21'0 0.0
2014-Jul-26 14:29N 51°03' E 002°21'0 0.0
2014-Jul-26 13:31N 51°03' E 002°21'0 0.0
2014-Jul-26 12:31N 51°03' E 002°21'0 0.0
2014-Jul-26 11:34N 51°03' E 002°21'0 0.0
2014-Jul-26 10:33N 51°03' E 002°21'0 0.0
2014-Jul-26 09:33N 51°03' E 002°21'0 0.0
2014-Jul-26 08:26N 51°03' E 002°21'0 0.0
2014-Jul-26 07:17N 51°03' E 002°21'0 0.0
2014-Jul-26 06:31N 51°03' E 002°21'0 0.0
2014-Jul-26 05:28N 51°03' E 002°21'0 0.0
2014-Jul-26 04:30N 51°03' E 002°21'0 0.0
2014-Jul-26 03:33N 51°03' E 002°21'0 0.0
2014-Jul-26 02:32N 51°03' E 002°21'0 0.0
2014-Jul-26 01:17N 51°03' E 002°21'0 0.0
2014-Jul-26 00:32N 51°03' E 002°21'0 0.0
2014-Jul-25 22:31N 51°03' E 002°21'0 0.0
2014-Jul-25 21:27N 51°03' E 002°21'0 0.0
2014-Jul-25 20:30N 51°03' E 002°21'0 0.0
2014-Jul-25 19:29N 51°03' E 002°21'0 0.0
2014-Jul-25 18:32N 51°03' E 002°21'0 0.0
2014-Jul-25 17:32N 51°03' E 002°21'0 0.0
2014-Jul-25 16:31N 51°03' E 002°21'0 0.0
2014-Jul-25 15:31N 51°03' E 002°21'0 0.0
2014-Jul-25 14:21N 51°03' E 002°21'0 0.0
2014-Jul-25 13:24N 51°03' E 002°21'0 0.0
2014-Jul-25 12:29N 51°03' E 002°21'0 0.0
2014-Jul-25 11:32N 51°03' E 002°21'0 0.0
2014-Jul-25 10:26N 51°03' E 002°21'0 0.0
2014-Jul-25 09:25N 51°03' E 002°21'0 0.0
2014-Jul-25 08:28N 51°03' E 002°21'0 0.0
2014-Jul-25 07:33N 51°03' E 002°21'0 0.0
2014-Jul-25 06:30N 51°03' E 002°21'0 0.0
2014-Jul-25 05:32N 51°03' E 002°21'0 0.0
2014-Jul-25 04:32N 51°03' E 002°21'0 0.0
2014-Jul-25 03:32N 51°03' E 002°21'0 0.0
2014-Jul-25 02:31N 51°03' E 002°21'0 0.0
2014-Jul-25 01:28N 51°03' E 002°21'0 0.0
2014-Jul-25 00:33N 51°03' E 002°21'0 0.0
2014-Jul-24 23:33N 51°03' E 002°21'0 0.0
2014-Jul-24 22:32N 51°03' E 002°21'0 0.0
2014-Jul-24 21:32N 51°03' E 002°21'0 0.0
2014-Jul-24 20:31N 51°03' E 002°21'0 0.0
2014-Jul-24 19:31N 51°03' E 002°21'0 0.0
2014-Jul-24 18:31N 51°03' E 002°21'0 0.0
2014-Jul-24 17:33N 51°03' E 002°21'0 0.0
2014-Jul-24 16:30N 51°03' E 002°21'0 0.0
2014-Jul-24 15:32N 51°03' E 002°21'0 0.0
2014-Jul-24 14:32N 51°03' E 002°21'0 0.0
2014-Jul-24 13:31N 51°03' E 002°21'0 0.0
2014-Jul-24 12:31N 51°03' E 002°21'0 0.0
2014-Jul-24 11:30N 51°03' E 002°21'0 0.0
2014-Jul-24 10:18N 51°03' E 002°21'0 0.0
2014-Jul-24 09:21N 51°03' E 002°21'0 0.0
2014-Jul-24 08:32N 51°03' E 002°21'0 0.0
2014-Jul-24 07:32N 51°03' E 002°21'0 0.0
2014-Jul-24 06:31N 51°03' E 002°21'0 0.0
2014-Jul-24 05:28N 51°03' E 002°21'0 0.0
2014-Jul-24 04:34N 51°03' E 002°21'0 0.0
2014-Jul-24 03:33N 51°03' E 002°21'0 0.0
2014-Jul-24 02:33N 51°03' E 002°21'0 0.0
2014-Jul-24 01:32N 51°03' E 002°21'0 0.0
2014-Jul-24 00:32N 51°03' E 002°21'0 0.0
2014-Jul-23 23:31N 51°03' E 002°21'0 0.0
2014-Jul-23 22:31N 51°03' E 002°21'0 0.0
2014-Jul-23 21:34N 51°03' E 002°21'0 0.0
2014-Jul-23 20:33N 51°03' E 002°21'0 0.0
2014-Jul-23 19:27N 51°03' E 002°21'0 0.0
2014-Jul-23 18:32N 51°03' E 002°21'0 0.0
2014-Jul-23 17:32N 51°03' E 002°21'0 0.0
2014-Jul-23 16:25N 51°03' E 002°21'0 0.0
2014-Jul-23 15:31N 51°03' E 002°21'0 0.0
2014-Jul-23 14:33N 51°03' E 002°21'0 0.0
2014-Jul-23 13:33N 51°03' E 002°21'0 0.0
2014-Jul-23 11:14N 51°03' E 002°21'0 0.0
2014-Jul-23 10:20N 51°03' E 002°21'0 0.0
2014-Jul-23 09:07N 51°03' E 002°21'0 0.0
2014-Jul-23 08:22N 51°03' E 002°21'0 0.0
2014-Jul-23 07:34N 51°03' E 002°21'0 0.0
2014-Jul-23 06:12N 51°03' E 002°21'0 0.0
2014-Jul-23 05:33N 51°03' E 002°21'0 0.0
2014-Jul-23 04:08N 51°03' E 002°21'0 0.0
2014-Jul-23 03:14N 51°03' E 002°21'0 0.0
2014-Jul-23 02:31N 51°03' E 002°21'0 0.0
2014-Jul-23 01:25N 51°03' E 002°21'0 0.0
2014-Jul-23 00:33N 51°03' E 002°21'0 0.0
2014-Jul-22 23:33N 51°03' E 002°21'0 0.0
2014-Jul-22 22:30N 51°03' E 002°21'0 0.0
2014-Jul-22 21:29N 51°03' E 002°21'0 0.0
2014-Jul-22 20:32N 51°03' E 002°21'0 0.0
2014-Jul-22 19:31N 51°03' E 002°21'0 0.0
2014-Jul-22 18:31N 51°03' E 002°21'0 0.0
2014-Jul-22 17:33N 51°03' E 002°21'0 0.0
2014-Jul-22 16:33N 51°03' E 002°21'0 0.0
2014-Jul-22 15:33N 51°03' E 002°21'0 0.0
2014-Jul-22 14:32N 51°03' E 002°21'0 0.0
2014-Jul-22 13:29N 51°03' E 002°21'0 0.0
2014-Jul-22 12:31N 51°03' E 002°21'0 0.5
2014-Jul-22 11:33N 51°03' E 002°21'2210.9
2014-Jul-22 09:32N 51°01' E 001°46'12 9.3
2014-Jul-22 08:13N 50°54' E 001°30'28 9.9
2014-Jul-22 05:23N 50°31' E 001°05'1213.2
2014-Jul-22 04:30N 50°26' E 000°49'1313.7
2014-Jul-22 03:33N 50°22' E 000°29'4410.9
2014-Jul-21 23:31N 49°43' W 000°04'1212.3
2014-Jul-21 22:33N 49°32' W 000°07'1211.6
2014-Jul-21 21:33N 49°26' E 000°09'1514.1
2014-Jul-21 20:30N 49°29' E 000°31'511.5
2014-Jul-21 20:05N 49°26' E 000°36'2 0.1
2014-Jul-20 01:30N 49°27' E 000°33'1010.9
2014-Jul-20 00:34N 49°26' E 000°18'1212.2
2014-Jul-19 23:33N 49°28' W 000°01'8 7.9
2014-Jul-19 22:33N 49°33' W 000°10'5711.3
2014-Jul-19 17:33N 50°28' E 000°05'1212.2
2014-Jul-19 16:33N 50°32' E 000°24'1111.2
2014-Jul-19 15:34N 50°36' E 000°40'1111.1
2014-Jul-19 14:33N 50°42' E 000°54'1812.1
2014-Jul-19 13:05N 50°53' E 001°17'714.1
2014-Jul-19 12:34N 50°59' E 001°24'1312.6
2014-Jul-19 11:33N 51°05' E 001°41'1313.0
2014-Jul-19 10:33N 51°03' E 002°01'1212.4
2014-Jul-19 09:32N 51°03' E 002°21'1 0.6
2014-Jul-19 08:31N 51°03' E 002°21'0 0.0
2014-Jul-19 07:33N 51°03' E 002°21'0 0.0
2014-Jul-19 06:09N 51°03' E 002°21'0 0.0
2014-Jul-19 05:29N 51°03' E 002°21'0 0.0
2014-Jul-19 04:26N 51°03' E 002°21'0 0.0
2014-Jul-19 03:25N 51°03' E 002°21'0 0.0
2014-Jul-19 02:31N 51°03' E 002°21'0 0.0
2014-Jul-19 01:33N 51°03' E 002°21'0 0.0
2014-Jul-19 00:30N 51°03' E 002°21'0 0.0
2014-Jul-18 23:24N 51°03' E 002°21'0 0.0
2014-Jul-18 22:29N 51°03' E 002°21'0 0.0
2014-Jul-18 21:26N 51°03' E 002°21'0 0.0
2014-Jul-18 20:31N 51°03' E 002°21'0 0.0
2014-Jul-18 19:31N 51°03' E 002°21'0 0.0
2014-Jul-18 18:33N 51°03' E 002°21'0 0.0
2014-Jul-18 17:33N 51°03' E 002°21'0 0.0
2014-Jul-18 16:11N 51°03' E 002°21'0 0.0
2014-Jul-18 15:32N 51°03' E 002°21'0 0.0
2014-Jul-18 14:32N 51°03' E 002°21'  

Dump ship's entire track history